Regional Weather Roundup
Issued by NWS

Home | Current Version | Previous Version | Text Only | Print | Product List | Glossary On
Versions: 1 2 3 4 5 6 7 8 9 10 11 12 13 14 15 16 17 18 19 20 21 22 23 24 25 26 27
000
ASUS45 KBOU 230007
RWRCO

WEATHER ROUNDUP FOR COLORADO
NATIONAL WEATHER SERVICE DENVER/BOULDER CO
600 PM MDT FRI SEP 22 2017

NOTE: "FAIR" INDICATES FEW OR NO CLOUDS BELOW 12000 FEET WITH NO
SIGNIFICANT WEATHER AND/OR OBSTRUCTIONS TO VISIBILITY.

COZ001>005-013-030-031-230100-
...NORTHWEST COLORADO...

CITY           SKY/WX    TMP DP  RH WIND       PRES   REMARKS
CRAIG          FAIR      64  36  35 NE7       29.84F
HAYDEN         FAIR      61  35  37 NW6       29.89S
MEEKER         FAIR      66  28  24 S13       29.84S
RABBIT EARS PA CLOUDY    45  32  61 W6        30.10R
STEAMBOAT SPGS FAIR      60  37  41 W7        29.90R
WALDEN         PTSUNNY   57  32  38 S16G22    29.97R
$$

COZ006>008-011-230100-
...WEST CENTRAL VALLEYS...

CITY           SKY/WX    TMP DP  RH WIND       PRES   REMARKS
GRAND JUNCTION FAIR      75  30  19 SW17      29.74F
MONTROSE       PTSUNNY   69  34  27 SW10      29.83F
EAGLE          CLOUDY    65  35  33 SW12G17   29.92R
RIFLE          FAIR      68  30  24 W6        29.79S
DELTA          NOT AVBL
NUCLA          FAIR      72  23  16 SW17G32   29.86R
$$

COZ017>023-064>068-230100-
...SOUTHWEST COLORADO...

CITY           SKY/WX    TMP DP  RH WIND       PRES   REMARKS
DURANGO        FAIR      72  26  18 SW17G35   29.91S
CORTEZ         FAIR      71  27  19 SW18G26   29.85S
PAGOSA SPRINGS FAIR      62  40  45 E3        30.00R
TELLURIDE      CLOUDY    56  34  44 SE20G25   30.04F
WOLF CREEK PAS DRIZZLE   37  37 100 S12G20    30.28R
$$

COZ009-010-012-014-032>034-037-058>063-230100-
...CENTRAL COLORADO...

CITY           SKY/WX    TMP DP  RH WIND       PRES   REMARKS
ASPEN          PTSUNNY   58  36  43 N12       29.95R
BUENA VISTA    PTSUNNY   65  30  26 SE12      29.99R
COPPER MTN     PTSUNNY   52  23  32 S30G39    30.21S
BERTHOUD PASS  FAIR      41  32  70 S26G59    30.24R
COTTONWOOD PAS FAIR      61  30  31 S15G40    30.09F
GUNNISON       FAIR      62  34  35 S21G30    29.96F
KREMMLING      RAIN      59  43  55 W17G29    29.96R
LEADVILLE      FAIR      53  23  31 S12       30.07R
MONARCH PASS   MIX PCPN  43  32  65 S21G37    30.34R
SALIDA         FAIR      67  32  27 S12G29    30.05S
SUNLIGHT       FAIR      43  32  65 S13G33    30.12R
WILKERSON PASS FAIR      46  30  53 SW10G20   30.23R
$$

COZ069>075-230100-
...SAN LUIS VALLEY/SANGRE DE CRISTO MOUNTAINS...

CITY           SKY/WX    TMP DP  RH WIND       PRES   REMARKS
ALAMOSA        LGT RAIN  62  39  42 W28G45    30.00R
DEL NORTE      CLOUDY    58  40  52 NW6       30.04F
LA VETA PASS   PTSUNNY   57  30  35 MISG      30.27S
SAGUACHE       FAIR      63  36  36 W12G17    30.03F
$$

COZ035-036-038>040-230100-
...NORTHERN COLORADO FRONT RANGE...

CITY           SKY/WX    TMP DP  RH WIND       PRES   REMARKS
DENVER INTL AP MOCLDY    67  40  37 N26       29.80R
DMNS CITY PARK   N/A     64  42  43 NW7G21    29.85R
AURORA         MOCLDY    66  41  40 N17G23    29.85R
FRONT RANGE AP MOCLDY    72  41  33 N18G28    29.82R
ERIE MUNI ARPT FAIR      63  39  41 N16G25    29.87F
BOULDER MUN AP FAIR      63  39  42 N6        29.85S
CENTENNIAL     MOCLDY    67  42  40 N15       29.86R
BROOMFIELD     CLOUDY    63  39  42 NW22G31   29.85R
FORT COLLINS   FAIR      63  41  44 N14       29.85R
LONGMONT       FAIR      65  41  42 N15       29.85S
$$

COZ041-046-047-076>085-087-088-230100-
...PIKES PEAK/PALMER DIVIDE AND SOUTHERN FOOTHILLS...

CITY           SKY/WX    TMP DP  RH WIND       PRES   REMARKS
COLO. SPRINGS  MOCLDY    78  33  19 S20G25    29.86R
A. F. ACADEMY  MOCLDY    75  30  19 S18G25    29.87R
SCHRIEVER AFB  FAIR      76  27  16 S23G33    29.86S
CHEYENNE MTN   PTSUNNY   73  28  19 S8G21     29.85R
ELLICOTT         N/A    N/A N/A N/A SW25G33   29.85S
FALCON         MOCLDY    73  26  17 S20G31    29.92R
FORT CARSON    FAIR      80  29  15 SW23G33   29.81R
LIMON            N/A    N/A N/A N/A MISG      29.81S
MONUMENT HILL  FAIR      70  32  24 S18G26    29.93R
CANON CITY     SUNNY     84  36  17 SW13G21   29.81R
WALSENBURG     FAIR      79  30  17 SW13G20   29.86S
TRINIDAD       FAIR      80  34  19 S21G31    29.86S
$$

COZ042>045-048>051-090-091-230100-
...NORTHEAST COLORADO...

CITY           SKY/WX    TMP DP  RH WIND       PRES   REMARKS
GREELEY ARPT   LGT RAIN  64  43  46 NE30G38   29.78S
AKRON          FAIR      84  32  15 S16G26    29.76S
BURLINGTON     FAIR      87  38  17 S23G33    29.78S
WRAY           FAIR      86  32  14 S9        29.73F
YUMA           FAIR      79  37  22 S9        29.74F
STERLING       FAIR      72  46  40 N13       29.76R
HOLYOKE        FAIR      79  43  27 NE10      29.76S
FORT MORGAN    LGT RAIN  70  42  36 N20G29    29.78R
$$

COZ086-089-092>099-230100-
...SOUTHEAST COLORADO...

CITY           SKY/WX    TMP DP  RH WIND       PRES   REMARKS
PUEBLO         FAIR      84  31  14 SW20G26   29.76R
LA JUNTA       FAIR      88  34  14 SW24G35   29.76R
LAMAR          FAIR      88  46  23 S20G26    29.73S
SPRINGFIELD      N/A     83  58  42 S24G31    29.81F
$$




USA.gov is the U.S. government's official web portal to all federal, state and local government web resources and services.